Home > Weather > Lucerne > Past weeks

Flag for Switzerland Weather for the Past 2 Weeks in Lucerne, Lucerne, Switzerland

Now
35 °F

Chilly.


Feels Like: 35 °F
Forecast: 35 / 46 °F
Wind: 1 mph from West

Location: Giswil

Current Time: Feb 13, 2016 at 9:10:16 AM

Latest Report: Feb 13, 2016 at 8:00 AM


Visibility: N/A

Pressure: 29.44 "Hg

Humidity: 99%

Dew point: 34 °F

Location of LucerneLocation

Historic Weather in Lucerne — Graph

°F

Lucerne Temperature Yesterday

Maximum temperature yesterday: 38 °F (at 6:00 PM)
Minimum temperature yesterday: 32 °F (at 10:00 AM)
Average temperature yesterday: 36 °F

High & Low Weather Summary for the Past Weeks

 TemperatureHumidityPressure
High62 °F (Feb 1, 2:00 PM)100% (Jan 31, 8:00 AM)30.55 "Hg (Jan 31, 8:00 AM)
Low25 °F (Feb 11, 8:00 AM)28% (Feb 7, 1:00 AM)29.32 "Hg (Feb 9, 4:00 PM)
Average42 °F79%30.04 "Hg
* Reported Jan 29 7:00 AM — Feb 13 7:00 AM, Lucerne, Weather by CustomWeather, © 2016

Note: Actual official high and low records may vary slightly from our data, if they occured in-between our weather recording intervals... More about our weather records

Advertising

Lucerne Weather History for the Previous 24 Hours

 ConditionsComfort  
Time TempWeatherWind HumidityBarometerVisibility
7:00 AM
Sat, Feb 13
36 °FChilly.1 mph99%29.44 "HgN/A
6:00 AM37 °FChilly.2 mph98%29.44 "HgN/A
5:00 AM39 °FChilly.2 mph95%29.44 "HgN/A
1:00 AM38 °FChilly.14 mph84%29.38 "HgN/A
11:00 PM
Fri, Feb 12
37 °FChilly.1 mph85%29.38 "HgN/A
10:00 PM37 °FChilly.7 mph92%29.38 "HgN/A
9:00 PM38 °FChilly.3 mph80%29.38 "HgN/A
8:00 PM36 °FChilly.3 mph88%29.41 "HgN/A
7:00 PM36 °FChilly.5 mph92%29.41 "HgN/A
6:00 PM38 °FChilly.3 mph80%29.41 "HgN/A
5:00 PM38 °FChilly.2 mph82%29.38 "HgN/A
4:00 PM38 °FChilly.No wind77%29.38 "HgN/A
3:00 PM37 °FChilly.1 mph76%29.41 "HgN/A
2:00 PM37 °FChilly.No wind77%29.44 "HgN/A
1:00 PM37 °FChilly.1 mph77%29.50 "HgN/A
12:00 PM37 °FChilly.No wind77%29.56 "HgN/A
11:00 AM35 °FChilly.1 mph81%29.62 "HgN/A
10:00 AM32 °FChilly.1 mph92%29.65 "HgN/A
9:00 AM33 °FChilly.1 mph93%29.69 "HgN/A
Weather by CustomWeather, © 2016

See weather overviewHow to use our weather pages